STARLINK-35494, 65927

Orbit data source: Space-Track

STARLINK-35494, 65927 is a payload satellite owned by SpaceX/Seattle (US) in LEO that was launched on Wed, 08 Oct 2025 UTC via an FALCON 9 launch vehicle from the Air Force Western Test Range (AFWTR). Payload-class satellites include a variety of spacecraft equipped with specific instruments for various scientific and technological missions. These include communications satellites like Starlink; space stations such as the ISS; scientific satellites like the Hubble; Earth observation satellites from companies like Planet Labs, Umbra, and HawkEye 360; GPS; miniature CubeSats for education and research; and military/defense satellites.

Loading next visibility...
Identifier
65927, 2025-225T
Orbit
LEO
Country
Flag of USUS
Related business
Manufacturer
SpaceX/Seattle
Mission
Operational Commercial Communications
Bus & Motor
STARLINK V2MO, Unknown motor
Mass
575 kg wet, ~530 kg dry
Launch date (UTC)
2025-10-08 (8 months ago)
Launch vehicle
FALCON 9
Launch site
Air Force Western Test Range (AFWTR)
Object type
Payload
Rocket body
Debris
Shape & HBR
Box + 2 Pan, 17.7 m
Radar Cross Section
36.964 m², Large (>1 m²)

Expand to show TLE details & history
Last TLE update: 11 hours ago

TLE from 11 hours ago
0 STARLINK-35494
1 65927U 25225T   26151.27603574  .00027746  00000-0  82910-3 0  9993
2 65927  53.1577 141.9910 0001140  82.2282 277.8850 15.34406582 37054
Epoch: 2026-05-31T06:37Z
TLE epoch observation values (Epoch: 2026-05-31T06:37:29.487Z)
Latitude
-0.00004°
Longitude
153.83807°
Altitude
463.478 km
Speed
7.636 km/s
True Right ascension
09h 27m 57s
True Declination
0° 00' 00"
Sunlit
Object was in daylight at epoch
Visualization orbit readout
Latitude
Unknown
Longitude
Unknown
Altitude
Unknown
Speed
Unknown
Apparent Right ascension
Unknown
Apparent Declination
Unknown
Sunlit
N/A
Visualization observer readout
Local Sidereal Time
03:18:24
Azimuth
Unknown
Elevation
Unknown
Doppler factor
Unknown
Orbital elements
Apogee altitude
463.721 km
Perigee altitude
462.161 km
Semi-major axis
6,841.078 km
Eccentricity
0.00011
Inclination
53.1577°
RAAN
141.991°
Arg. of periapsis
82.2282°
True anomaly
277.87206°
Mean anomaly
277.885°
Eccentric anomaly
277.87853°
Mean motion
3.8358 °/min
Orbital period
93.85 mins
BSTAR
0.0008291
Loading maneuver chart data...
Computing Atmospheric mass density...
Loading historical data...
Loading historical data...
Loading historical data...
Loading historical data...
Loading historical data...
Loading historical data...
Loading historical data...

Documentation

Showing up to 5 results
|